TITAN 3C TRANSTAGE DEB, 26048

Orbit data source: Space-Track

TITAN 3C TRANSTAGE DEB, 26048 is space debris in HEO originally from a launch on Tue, 21 Dec 1965 UTC launched from the Air Force Eastern Test Range (AFETR). Debris objects in space refer to the collection of defunct objects orbiting the Earth. Examples of debris include non-operational satellites, rocket bodies, and fragments generated from explosions, collisions, or faulty payload assembly.

Loading next visibility...
Identifier
26048, 1965-108AG
Orbit
HEO
Country
Flag of USUS
Related business
Manufacturer
Unknown
Mission
Spacecraft
Bus & Motor
Unknown
Mass
Unknown
Launch date (UTC)
1965-12-21 (60 years ago)
Launch vehicle
Unknown
Launch site
Air Force Eastern Test Range (AFETR)
Object type
Payload
Rocket body
Debris
Shape & HBR
Unknown
Radar Cross Section
Medium (>0.1 m² and <1 m²)

Expand to show TLE details & history
Last TLE update: 3 days ago

TLE from 3 days ago
0 TITAN 3C TRANSTAGE DEB
1 26048U 65108AG  25258.12143544  .00003852  00000-0  14258-2 0  9996
2 26048  26.3929 256.4474 6266522 239.0932  45.0015  3.62262549323172
Epoch: 2025-09-15T02:54Z
TLE epoch observation values (Epoch: 2025-09-15T02:54:52.022Z)
Latitude
-0.00009°
Longitude
-141.63383°
Altitude
9,647.903 km
Speed
5.243 km/s
True Right ascension
17h 05m 39s
True Declination
0° 00' 00"
Sunlit
Object was in daylight at epoch
Visualization orbit readout
Latitude
Unknown
Longitude
Unknown
Altitude
Unknown
Speed
Unknown
Apparent Right ascension
Unknown
Apparent Declination
Unknown
Sunlit
N/A
Visualization observer readout
Local Sidereal Time
15:41:56
Azimuth
Unknown
Elevation
Unknown
Doppler factor
Unknown
Orbital elements
Apogee altitude
22,758.305 km
Perigee altitude
309.234 km
Semi-major axis
17,911.907 km
Eccentricity
0.62665
Inclination
26.3929°
RAAN
256.4474°
Arg. of periapsis
239.0932°
True anomaly
120.9039°
Mean anomaly
45.0015°
Eccentric anomaly
80.4036°
Mean motion
0.90538 °/min
Orbital period
397.62 mins
BSTAR
0.0014258
Loading maneuver chart data...
Computing Atmospheric mass density...

Documentation

Showing up to 5 results
|